Content
SEND FEEDBACK

Daily
Averages
Monthly
Summary
United States of America

SKAGWAY, ALASKA


Home > North America > United States > Alaska
Elevation: 521 feet     Latitude: 59 27N     Longitude: 135 19W

WEATHER
 
SELECT A DAY
Number of Records: 192,140;   Date Range: 1/1/95 - 8/30/14
 
SHARE

PRINT THIS DATA

[ ← Previous Day ]
WEATHER ALMANAC - JANUARY 31, 2013
[ Next Day → ]
[ °C ]   °F
Weather ElementAverageHighLow
Temperature28.8 °F32 °F (12:53 pm)19.9 °F (1:53 am)
Dewpoint25.4 °F30.2 °F (11:18 pm)18 °F (1:53 am)
Humidity87 %93 % (5:38 pm)78 % (9:53 am)
Barometer29.98 in30.10 in (11:53 pm)29.89 in (3:53 am)
Wind Speed0.9 mph4.6 mph (9:53 am)
Weather ElementAverage
Visibility7 mi
Wind DirectionNNE (10 °)

Weather ElementTotal
Precipitation0.01 in
Heating Degree Days39.1 (Base 65)
Averaged from 31 records on January 31, 2013
WEATHER CONDITIONS BREAKOUT
WIND DIRECTION BREAKOUT
WEATHER BY HOUR - JANUARY 31, 2013
[ °C ]   °F
Local TimeTemperatureDewpointHumidityBarometerVisibilityWind DirectionWind SpeedGust SpeedPrecipitationEventsConditions
12:53 AM21.9 °F19.0 °F89 %29.94 in10.0 miCalmOvercast
1:53 AM19.9 °F18.0 °F92 %29.93 in10.0 miNE (50°)3.5 mphScattered Clouds
3:53 AM21.0 °F19.0 °F92 %29.89 in10.0 miCalmClear
4:53 AM21.0 °F19.0 °F92 %29.89 in10.0 miNNE (30°)3.5 mphClear
5:53 AM23.0 °F21.0 °F92 %29.90 in10.0 miCalmOvercast
6:53 AM27.0 °F21.9 °F81 %29.90 in10.0 miCalmOvercast
7:53 AM28.0 °F23.0 °F81 %29.91 in10.0 miCalmOvercast
8:53 AM27.0 °F21.9 °F81 %29.92 in10.0 miCalmOvercast
9:53 AM28.0 °F21.9 °F78 %29.93 in8.0 miNNE (30°)4.6 mphOvercast
10:37 AM30.2 °F24.8 °F80 %29.93 in10.0 miCalmOvercast
10:53 AM30.0 °F25.0 °F82 %29.94 in10.0 miCalmOvercast
11:53 AM30.0 °F25.0 °F82 %29.96 in10.0 miCalmOvercast
12:53 PM32.0 °F26.1 °F79 %29.96 in10.0 miCalmOvercast
1:53 PM30.9 °F26.1 °F82 %29.98 in10.0 miCalmOvercast
2:53 PM30.9 °F27.0 °F85 %29.99 in6.0 miCalmOvercast
3:02 PM30.2 °F26.6 °F86 %29.98 in7.0 miCalmOvercast
3:32 PM30.2 °F26.6 °F86 %29.99 in4.0 miCalm0.00 inSnowLight Snow
3:53 PM30.0 °F26.1 °F85 %29.99 in3.0 miCalm0.00 inSnowLight Snow
4:20 PM30.2 °F26.6 °F86 %30.00 in3.0 miCalm0.00 inSnowLight Snow
4:37 PM30.2 °F26.6 °F86 %30.01 in4.0 miCalm0.00 inOvercast
4:53 PM30.0 °F27.0 °F88 %30.01 in3.0 miCalm0.00 inOvercast
5:38 PM30.2 °F28.4 °F93 %30.00 in3.0 miCalmOvercast
5:53 PM30.0 °F28.0 °F92 %30.01 in4.0 miEast (80°)3.5 mphOvercast
6:53 PM30.0 °F28.0 °F92 %30.02 in5.0 miCalmOvercast
7:53 PM30.0 °F28.0 °F92 %30.04 in5.0 miCalm0.00 inOvercast
8:53 PM30.9 °F28.9 °F92 %30.04 in3.0 miCalm0.01 inOvercast
9:53 PM30.9 °F28.9 °F92 %30.06 in7.0 miCalmOvercast
10:36 PM32.0 °F28.4 °F87 %30.07 in4.0 miNE (50°)4.6 mph0.00 inRainLight Freezing Rain
10:53 PM32.0 °F28.9 °F88 %30.07 in5.0 miNE (40°)3.5 mph0.00 inRainLight Freezing Rain
11:18 PM32.0 °F30.2 °F93 %30.08 in5.0 miNNE (30°)4.6 mph0.00 inOvercast
11:53 PM32.0 °F30.0 °F92 %30.10 in8.0 miCalm0.00 inOvercast
Hourly data recorded from PAGY, located miles away from Skagway, Alaska







STORIES FROM OUR PARTNERS